Weather History for KDVN - September, 2013

Change the Weather History Date:

Thursday, September 12, 2013

  Actual Average Record
Temperature  
Mean Temperature 67 °F 65 °F  
Max Temperature 80 °F 77 °F 92 °F (1952)
Min Temperature 54 °F 53 °F 36 °F (2014)
Degree Days  
Heating Degree Days 0 3  
Month to date heating degree days 3 21  
Since 1 July heating degree days 22 35  
Cooling Degree Days 2 3  
Month to date cooling degree days 109 42  
Year to date cooling degree days 882 746  
Growing Degree Days 17 (Base 50)    
Moisture  
Dew Point 52 °F    
Average Humidity 62    
Maximum Humidity 93    
Minimum Humidity 30    
Precipitation  
Precipitation 0.00 in 0.10 in 2.30 in (1949)
Month to date precipitation T 1.14  
Year to date precipitation 28.39 26.96  
Snow  
Snow 0.00 in - - ()
Month to date snowfall 0.0  
Since 1 July snowfall 0.0  
Since 1 September snowfall 0.0  
Snow Depth 0.00 in    
Sea Level Pressure  
Sea Level Pressure 30.07 in    
Wind  
Wind Speed 9 mph (NW)    
Max Wind Speed 21 mph    
Max Gust Speed 28 mph    
Visibility 10 miles    
Events      
T = Trace of Precipitation, MM = Missing Value Source: NWS Daily Summary

Daily Weather History Graph

Daily Weather History Graph

Search for Another Location

Airport or City:

Trip Planner

Search our weather history database for the weather conditions in past years. The results will help you decide how hot, cold, wet, or windy it might be!

Date:

Astronomy

Sep. 12, 2013 Rise Set
Actual Time 6:39 AM CDT 7:16 PM CDT
Civil Twilight 6:11 AM CDT 7:44 PM CDT
Nautical Twilight 5:38 AM CDT 8:17 PM CDT
Astronomical Twilight 5:04 AM CDT 8:51 PM CDT
Moon 2:12 PM CDT (9/12) No Moon Set
Length of Visible Light 13h 32m
Length of Day
12h 36m
Waxing Crescent, 50% of the Moon is Illuminated
Sep 12
Waxing Crescent
Sep 12
First Quarter
Sep 19
Full
Sep 26
Last Quarter
Oct 4
New

Hourly Weather History & Observations

Time (CDT) Temp. Dew Point Humidity Pressure Visibility Wind Dir Wind Speed Gust Speed Precip Events Conditions
12:52 AM 66.0 °F 64.0 °F 93% 30.03 in 8.0 mi WNW 4.6 mph - N/A   Clear
1:52 AM 66.0 °F 63.0 °F 90% 30.03 in 10.0 mi WNW 4.6 mph - N/A   Clear
2:52 AM 64.0 °F 62.1 °F 93% 30.04 in 10.0 mi West 4.6 mph - N/A   Clear
3:52 AM 63.0 °F 60.1 °F 90% 30.05 in 10.0 mi WNW 4.6 mph - N/A   Clear
4:52 AM 60.1 °F 57.9 °F 93% 30.05 in 10.0 mi WNW 4.6 mph - N/A   Clear
5:52 AM 61.0 °F 57.9 °F 90% 30.05 in 10.0 mi West 5.8 mph - 0.01 in   Clear
6:52 AM 62.1 °F 59.0 °F 90% 30.06 in 10.0 mi WNW 4.6 mph - N/A   Clear
7:52 AM 63.0 °F 60.1 °F 90% 30.06 in 10.0 mi WNW 5.8 mph - N/A   Clear
8:52 AM 68.0 °F 57.0 °F 68% 30.06 in 10.0 mi NNW 9.2 mph - N/A   Clear
9:52 AM 73.0 °F 55.9 °F 55% 30.06 in 10.0 mi NNW 12.7 mph - N/A   Clear
10:52 AM 75.9 °F 53.1 °F 45% 30.07 in 10.0 mi NNW 12.7 mph 18.4 mph N/A   Clear
11:52 AM 78.1 °F 48.9 °F 36% 30.06 in 10.0 mi NW 15.0 mph 20.7 mph N/A   Clear
12:52 PM 79.0 °F 46.9 °F 32% 30.06 in 10.0 mi North 16.1 mph 21.9 mph N/A   Clear
1:52 PM 79.0 °F 48.0 °F 34% 30.06 in 10.0 mi NNW 11.5 mph 18.4 mph N/A   Clear
2:52 PM 79.0 °F 45.0 °F 30% 30.06 in 10.0 mi NNW 16.1 mph 23.0 mph N/A   Clear
3:52 PM 78.1 °F 45.0 °F 31% 30.05 in 10.0 mi NNW 12.7 mph 21.9 mph N/A   Clear
4:52 PM 77.0 °F 46.0 °F 33% 30.05 in 10.0 mi NNW 16.1 mph 23.0 mph N/A   Clear
5:52 PM 75.0 °F 45.0 °F 34% 30.06 in 10.0 mi NNW 13.8 mph 20.7 mph N/A   Clear
6:52 PM 70.0 °F 46.9 °F 44% 30.07 in 10.0 mi NNW 6.9 mph - N/A   Clear
7:52 PM 64.9 °F 46.9 °F 52% 30.10 in 10.0 mi North 8.1 mph - N/A   Clear
8:52 PM 62.1 °F 46.9 °F 58% 30.11 in 10.0 mi North 5.8 mph - N/A   Clear
9:52 PM 57.0 °F 48.0 °F 72% 30.14 in 10.0 mi NW 5.8 mph - N/A   Clear
10:52 PM 55.9 °F 48.0 °F 75% 30.13 in 10.0 mi NNW 5.8 mph - N/A   Clear
11:52 PM 54.0 °F 48.0 °F 80% 30.14 in 10.0 mi NNW 4.6 mph - N/A   Clear